Location: Oakhurst
(33.6448°N, 111.9543°W)
Time: 03:58:17
(UTC+00:00)

X-37B - Visible Passes

Search period start: 14 May 2021 00:00
Search period end: 24 May 2021 00:00
Orbit: 386 x 389 km, 45.0° (Epoch: 08 May)

Date Brightness Start Highest point End Pass type
(mag) Time Alt. Az. Time Alt. Az. Time Alt. Az.
14 May 2.4 03:21:49 10° NW 03:24:30 24° NNE 03:26:35 14° ENE visible
14 May 3.6 04:58:11 10° WNW 04:58:52 15° WNW 04:58:52 15° WNW visible
15 May 0.4 03:59:42 10° NW 04:02:54 84° NE 04:03:02 80° E visible
16 May 1.4 03:01:26 10° NW 03:04:29 41° NNE 03:07:14 12° E visible
16 May 3.2 04:38:31 10° W 04:39:31 15° WSW 04:39:31 15° WSW visible
17 May 1.3 03:39:39 10° WNW 03:42:42 42° SW 03:43:47 30° S visible
19 May 2.7 03:20:01 10° W 03:22:25 20° SW 03:24:49 10° S visible
